Camp Douglas, WI

4:07 AM CDT on August 29, 2016 (GMT -0500)
Volk

Weather History for KVOK - October, 2011

Change the Weather History Date:

Tuesday, October 4, 2011

  Actual Average Record
Temperature  
Mean Temperature 60 °F -  
Max Temperature 76 °F 60 °F 86 °F (2005)
Min Temperature 44 °F 43 °F 23 °F (2008)
Degree Days  
Heating Degree Days 4    
Growing Degree Days 10 (Base 50)    
Moisture  
Dew Point 50 °F    
Average Humidity 80    
Maximum Humidity 100    
Minimum Humidity 39    
Precipitation  
Precipitation 0.00 in - - ()
Sea Level Pressure  
Sea Level Pressure 30.23 in    
Wind  
Wind Speed 3 mph (SSE)    
Max Wind Speed 9 mph    
Max Gust Speed -    
Visibility 9 miles    
Events      
Averages and records for this station are not official NWS values.
T = Trace of Precipitation, MM = Missing Value Source: NWS Daily Summary

Daily Weather History Graph

Daily Weather History Graph

Search for Another Location

Airport or City:

Trip Planner

Search our weather history database for the weather conditions in past years. The results will help you decide how hot, cold, wet, or windy it might be!

Date:

Astronomy

Oct. 04, 2011 Rise Set
Actual Time 7:01 AM CDT 6:36 PM CDT
Civil Twilight 6:33 AM CDT 7:05 PM CDT
Nautical Twilight 5:59 AM CDT 7:38 PM CDT
Astronomical Twilight 5:25 AM CDT 8:12 PM CDT
Moon 2:51 PM CDT (10/4) No Moon Set
Length of Visible Light 12h 32m
Length of Day
11h 35m
First Quarter, 56% of the Moon is Illuminated
Oct 4
First Quarter
Oct 11
Full
Oct 19
Last Quarter
Oct 26
New
Nov 2
First Quarter

Hourly Weather History & Observations

Time (CDT) Temp. Windchill Dew Point Humidity Pressure Visibility Wind Dir Wind Speed Gust Speed Precip Events Conditions
12:55 AM 46.0 °F 43.9 °F 46.0 °F 100% 30.24 in 9.0 mi ESE 4.6 mph - N/A   Mostly Cloudy
1:55 AM 44.8 °F - 44.8 °F 100% 30.25 in 5.0 mi Calm Calm - N/A   Mostly Cloudy
2:55 AM 47.7 °F - 47.7 °F 100% 30.24 in 7.0 mi Calm Calm - N/A   Scattered Clouds
3:55 AM 44.1 °F - 44.1 °F 100% 30.25 in 7.0 mi Calm Calm - N/A   Clear
4:55 AM 45.0 °F - 45.0 °F 100% 30.25 in 7.0 mi Calm Calm - N/A   Scattered Clouds
5:55 AM 45.9 °F - 45.9 °F 100% 30.25 in 7.0 mi Calm Calm - N/A   Partly Cloudy
6:55 AM 46.0 °F - 46.0 °F 100% 30.27 in 10.0 mi Calm Calm - N/A   Clear
7:55 AM 50.0 °F - 50.0 °F 100% 30.28 in 10.0 mi Calm Calm - N/A   Partly Cloudy
8:55 AM 55.4 °F - 50.0 °F 82% 30.29 in 10.0 mi Calm Calm - N/A   Partly Cloudy
9:55 AM 60.8 °F - 50.0 °F 68% 30.28 in 10.0 mi Variable 3.5 mph - N/A   Partly Cloudy
10:55 AM 66.2 °F - 51.8 °F 60% 30.28 in 10.0 mi South 5.8 mph - N/A   Partly Cloudy
11:55 AM 71.6 °F - 51.8 °F 50% 30.27 in 10.0 mi South 9.2 mph - N/A   Partly Cloudy
12:55 PM 73.4 °F - 51.8 °F 47% 30.25 in 10.0 mi SE 8.1 mph - N/A   Scattered Clouds
1:55 PM 75.2 °F - 51.8 °F 44% 30.22 in 10.0 mi South 4.6 mph - N/A   Scattered Clouds
2:55 PM 75.2 °F - 50.0 °F 41% 30.20 in 10.0 mi SSE 5.8 mph - N/A   Partly Cloudy
3:55 PM 77.0 °F - 50.0 °F 39% 30.19 in 10.0 mi South 9.2 mph - N/A   Scattered Clouds
4:55 PM 75.2 °F - 51.8 °F 44% 30.17 in 10.0 mi SSE 5.8 mph - N/A   Scattered Clouds
5:55 PM 71.6 °F - 53.6 °F 53% 30.17 in 10.0 mi SSE 4.6 mph - N/A   Scattered Clouds
6:55 PM 60.8 °F - 55.4 °F 82% 30.17 in 10.0 mi Calm Calm - N/A   Partly Cloudy
7:55 PM 55.4 °F - 55.4 °F 100% 30.18 in 10.0 mi SE 3.5 mph - N/A   Clear
8:55 PM 51.8 °F - 51.8 °F 100% 30.18 in 10.0 mi Calm Calm - N/A   Clear
9:55 PM 48.2 °F - 48.2 °F 100% 30.19 in 10.0 mi East 3.5 mph - N/A   Clear
10:55 PM 46.4 °F 43.5 °F 46.4 °F 100% 30.18 in 10.0 mi SE 5.8 mph - N/A   Clear
11:55 PM 50.0 °F - 50.0 °F 100% 30.17 in 10.0 mi SSE 9.2 mph - N/A   Clear